Regional Weather Roundup
Issued by NWS Midland/Odessa, TX

Skip options and go directly to product.
Home | Oldest Version | Previous Version | Current Version | All | Graphics & Text | Save Text | Print | Product List | Glossary On

Skip product version selection by date and time.   
009
ASUS44 KMAF 270401
RWRMAF
MIDLAND AREA WEATHER ROUNDUP
NATIONAL WEATHER SERVICE MIDLAND TX
1000 PM CST THU FEB 26 2015

...IN SOUTHWEST TEXAS AND SOUTHEAST NEW MEXICO...

CITY           SKY/WX    TMP DP  RH WIND       PRES   REMARKS
ALPINE         CLOUDY    27  26  93 NE12      30.21R WCI  17
ANDREWS        CLOUDY    27  13  56 E16       30.26F WCI  14
ARTESIA        CLOUDY    28  19  69 SE13      30.22S WCI  18
BIG SPRING     CLOUDY    30  13  48 NE17      30.33R WCI  18
CARLSBAD       CLOUDY    30  18  60 E13       30.21S WCI  20
DRYDEN           N/A     35  24  64 NE16      30.22F WCI  25
FORT STOCKTON  CLOUDY    28  21  75 NE12      30.25R WCI  18
GUAD PASS      FRZ RAIN  22  20  92 E38       30.01R VSB 3/4 WCI   2
HOBBS          CLOUDY    25  14  63 E14       30.24R WCI  13
MARFA          CLOUDY    27  23  86 NE16      30.10F WCI  14
MIDLAND AIRPK  CLOUDY    30  17  58 NE14      30.30R WCI  19
MIDLAND INTL   CLOUDY    28  16  60 NE15      30.28R WCI  16
ODESSA         CLOUDY    28  16  60 E17       30.26F WCI  16
PECOS          CLOUDY    30  22  70 E15       30.27F WCI  19
PRESIDIO       FAIR      44  30  59 NE17G24   30.05S WCI  36
SEMINOLE       CLOUDY    26  13  57 E16       30.26F WCI  14
SNYDER         CLOUDY    27   9  47 NE16      30.33F WCI  14
WINK           CLOUDY    30  17  58 E13       30.25S WCI  20
$$
...OTHER STATIONS IN TEXAS...

CITY           SKY/WX    TMP DP  RH WIND       PRES   REMARKS
ABILENE        CLOUDY    28  16  60 NE8       30.38S WCI  20
AMARILLO       CLOUDY    21   5  50 E13       30.30S WCI   9
AUSTIN         CLOUDY    38  23  55 N22G29    30.35R WCI  27
BROWNSVILLE    CLEAR     56  48  74 NE14      30.17R
CORPUS CHRISTI PTCLDY    50  39  66 NE16      30.26R
DALLAS FTW     CLOUDY    32  14  47 N20G28    30.41R WCI  20
DEL RIO        CLOUDY    42  26  53 N7        30.28R WCI  38
EL PASO        PTCLDY    35  25  66 E12       30.00R WCI  27
HOUSTON INT    MOCLDY    40  33  76 N14       30.32R WCI  32
LUBBOCK        CLOUDY    23  14  68 E12       30.29S WCI  12
SAN ANGELO     CLOUDY    30  18  60 NE16      30.34R WCI  19
SAN ANTONIO    PTCLDY    38  27  64 N15G23    30.31R WCI  29
WACO           CLOUDY    35  22  58 N9        30.40R WCI  28
WICHITA FALLS  NOT AVBL
$$
...OTHER LOCATIONS IN NEW MEXICO...

CITY           SKY/WX    TMP DP  RH WIND       PRES   REMARKS
ALAMAGORDO     CLOUDY    43  23  45 MISG      29.98S
ALBUQUERQUE    CLOUDY    28  19  69 E25       29.97S WCI  13
CANNON AFB     NOT AVBL
CLOVIS         CLOUDY    21  16  79 SE12      30.22S WCI   9
HOLLOMAN AFB   CLOUDY    42  24  48 SW10      29.98R WCI  36
ROSWELL        CLOUDY    29  20  69 SE13      30.20R WCI  19
RUIDOSO        FOG       19  18  93 MISG      30.05S VSB 1/4
SANTA FE       LGT SNOW  20  15  81 SE20G29   29.99R WCI   4
TRUTH OR CONSE LGT RAIN  37  35  92 N12       29.94S WCI  29
TUCUMCARI      CLOUDY    23  18  81 SE9       30.22F WCI  13
$$

USA.gov is the U.S. government's official web portal to all federal, state and local government web resources and services.